CAPE
0 0 0 0 0 0 0 0 31 9 34 0 0 2 182 229 5 0 2 201 389 300 357 316 719 1286 1485 1145 1143 1017 780 482 47 0 0 0 0 0 0 0 0 0 0 0 0 0 1 0 0
0 0 0 0 0 0 0 0 34 5 3 1 124 245 428 348 87 258 179 94 1 90 47 187 1192 1700 1356 1238 844 402 49 0 0 0 0 0 0 0 0 0 0 0 0 0 0 0 0 0 0
10 0 0 0 0 0 0 0 10 49 0 0 340 587 616 291 6 68 266 0 0 76 864 1086 1488 1571 1315 617 129 2 0 0 0 0 0 0 0 0 0 0 0 0 0 0 0 0 0 0 0
54 0 0 0 0 0 0 43 0 209 56 142 612 642 413 169 73 740 186 7 302 721 865 1191 1425 1465 546 50 0 0 0 0 0 0 0 0 0 0 0 0 0 0 0 0 0 0 0 0 0
0 0 0 0 0 0 0 0 17 126 6 27 53 472 402 269 55 660 16 364 489 509 709 1111 1378 712 98 0 0 0 0 0 0 0 0 0 0 0 0 0 0 0 0 0 0 0 0 0 0
70 0 0 0 0 0 0 0 12 86 22 33 269 395 581 262 132 64 633 551 315 471 871 785 414 217 58 0 0 0 0 0 0 0 0 0 0 0 0 0 0 0 0 0 0 0 0 0 0
33 4 0 0 0 0 0 0 121 29 7 2 48 450 603 255 121 104 610 415 218 540 442 38 0 0 0 0 0 0 0 0 0 0 0 0 0 0 0 0 0 0 0 0 0 0 0 0 0
31 15 0 0 0 0 0 0 97 4 0 0 0 209 478 285 157 0 411 191 203 364 0 0 0 0 0 0 0 0 0 0 0 0 0 0 0 0 0 0 0 0 0 0 0 0 0 0 0
0 12 0 0 0 0 0 0 70 36 53 0 23 198 347 230 143 0 83 40 416 158 0 0 0 0 0 0 0 0 0 0 0 0 0 0 0 0 0 0 0 0 0 0 0 0 0 0 0
30 5 0 0 0 0 0 0 14 26 298 206 282 252 211 319 0 0 19 200 362 116 0 0 0 0 0 0 0 0 0 0 0 0 0 0 0 0 0 0 0 0 0 0 0 0 0 0 0
1 0 0 0 3 0 0 0 0 0 224 174 5 271 355 406 0 0 5 385 388 69 0 0 0 0 0 0 0 0 0 0 0 0 0 0 0 0 0 0 0 0 0 0 0 0 0 0 0
11 0 0 0 0 0 0 0 0 0 0 19 11 299 404 158 0 0 288 532 453 82 0 0 0 0 0 0 0 0 0 0 0 0 0 0 0 0 0 0 0 0 0 0 0 0 0 0 0
1 0 0 0 0 0 0 0 0 0 0 2 49 712 511 40 0 125 238 508 306 5 0 0 0 0 0 0 0 0 0 0 0 0 0 0 0 0 0 0 0 0 0 0 0 0 0 0 0
0 0 1 0 0 0 0 0 0 0 64 383 364 709 307 31 0 69 157 533 179 0 0 0 0 0 0 0 0 0 0 0 0 0 0 0 0 0 0 0 0 0 0 0 0 0 0 0 0
0 0 0 0 0 0 0 0 0 0 0 353 162 483 129 70 31 40 108 417 239 0 0 0 0 0 0 0 0 0 0 0 0 0 0 0 0 0 0 0 0 0 0 0 0 0 0 0 0
0 0 0 0 0 0 0 0 0 0 0 231 412 324 285 139 79 85 156 284 0 0 0 0 0 0 0 0 0 0 0 0 0 0 0 0 0 0 0 0 0 0 0 0 0 0 0 0 0
0 0 0 0 0 0 0 0 0 0 0 209 355 87 0 124 51 150 264 453 0 0 0 0 0 0 0 0 0 0 0 0 0 0 0 0 0 0 0 0 0 0 0 0 0 0 0 0 0
2 0 0 0 0 0 0 0 0 0 256 204 125 286 35 378 241 268 228 386 0 0 0 0 0 0 0 0 0 0 0 0 0 0 0 0 0 0 0 0 0 0 0 0 0 0 0 0 0
0 0 0 0 0 0 0 0 0 0 64 134 85 81 173 186 83 25 4 2 0 0 0 0 0 0 0 0 0 0 0 0 0 0 0 0 0 0 0 0 0 0 0 0 0 0 0 0 0
0 0 0 0 0 0 0 0 0 0 0 18 60 67 59 44 47 3 1 2 0 0 0 0 0 0 0 0 0 0 0 0 0 0 0 0 0 0 0 0 0 0 0 0 0 0 0 0 0
0 0 0 0 0 0 0 0 0 0 0 0 6 101 179 244 107 151 254 0 0 0 0 0 0 0 0 0 0 0 0 0 0 0 0 0 0 0 0 0 0 0 0 0 0 0 0 0 0
0 0 0 0 0 1 0 0 0 0 0 0 16 119 154 358 354 226 205 1 0 0 0 0 0 0 0 0 0 0 0 0 0 0 0 0 0 0 0 0 0 0 0 0 0 0 0 0 0
0 0 0 0 0 0 0 2 0 0 0 0 0 0 55 266 449 214 98 0 0 0 0 0 0 0 0 0 0 0 0 0 0 0 0 0 0 0 0 0 0 0 0 0 0 0 0 0 0
0 0 0 0 0 5 0 0 0 0 0 0 0 4 118 195 230 243 284 60 0 0 0 0 0 0 0 0 0 0 0 0 0 0 0 0 0 0 0 0 0 0 0 0 0 0 0 0 0
0 0 0 0 0 0 0 0 0 0 0 0 0 6 59 137 172 169 192 20 0 0 0 0 0 0 0 0 0 0 0 0 0 0 0 0 0 0 0 0 0 0 0 0 0 0 0 0 0
0 0 0 0 0 0 0 0 0 0 0 0 0 0 0 68 171 165 294 124 11 0 0 0 0 0 0 0 0 0 0 0 0 0 0 0 0 0 0 0 0 0 0 0 0 0 0 0 0
0 0 0 0 0 0 0 0 0 0 0 0 0 0 0 16 83 191 254 312 145 0 0 0 0 0 0 0 0 0 0 0 0 0 0 0 0 0 0 0 0 0 0 0 0 0 0 0 0
0 0 0 0 0 0 0 0 0 0 0 0 0 0 0 0 89 144 251 371 219 72 0 0 0 0 0 0 0 0 0 0 0 0 0 0 0 0 0 0 0 0 0 0 0 0 0 0 0
0 0 0 0 0 0 0 0 0 0 0 0 0 0 0 0 72 150 261 233 160 80 0 0 0 0 0 0 0 0 0 0 0 0 0 0 0 0 0 0 0 0 0 0 0 0 0 0 0
0 0 0 0 0 0 0 0 0 0 0 0 0 0 0 0 0 0 14 79 192 12 0 0 0 0 0 0 0 0 0 0 0 0 0 0 0 0 0 0 0 0 0 0 0 0 0 0 0
CIN
-0 -0 -0 -0 -0 -0 -0 -0 -309 -160 -94 -0 -0 -11 -282 -309 -56 -30 -55 -281 -154 -148 -102 -93 -0 -0 -0 -0 -0 -0 -0 -21 -179 -0 -0 -0 -0 -0 -0 -0 -0 -0 -0 -0 -0 -0 -0 -0 -0
-0 -0 -0 -0 -0 -0 -0 -0 -200 -161 -65 -89 -137 -239 -213 -247 -417 -336 -315 -374 -225 -310 -324 -160 -0 -0 -0 -0 -0 -20 -228 -0 -0 -0 -0 -0 -0 -0 -0 -0 -0 -0 -0 -0 -0 -0 -0 -0 -0
-49 -0 -0 -0 -0 -0 -0 -0 -233 -121 -0 -0 -79 -201 -237 -302 -545 -483 -277 -10 -0 -334 -10 -0 -0 -0 -0 -1 -147 -38 -0 -0 -0 -0 -0 -0 -0 -0 -0 -0 -0 -0 -0 -0 -0 -0 -0 -0 -0
-67 -0 -0 -0 -0 -0 -0 -145 -0 -43 -75 -93 -224 -248 -275 -305 -396 -218 -345 -536 -199 -44 -7 -1 -0 -0 -7 -232 -0 -0 -0 -0 -0 -0 -0 -0 -0 -0 -0 -0 -0 -0 -0 -0 -0 -0 -0 -0 -0
-10 -0 -0 -0 -0 -0 -0 -0 -203 -103 -164 -235 -427 -264 -279 -279 -394 -168 -145 -241 -131 -92 -29 -0 -0 -6 -177 -0 -0 -0 -0 -0 -0 -0 -0 -0 -0 -0 -0 -0 -0 -0 -0 -0 -0 -0 -0 -0 -0
-13 -0 -0 -0 -0 -0 -0 -0 -204 -146 -298 -169 -242 -217 -194 -249 -311 -364 -173 -170 -176 -111 -28 -21 -68 -116 -223 -0 -0 -0 -0 -0 -0 -0 -0 -0 -0 -0 -0 -0 -0 -0 -0 -0 -0 -0 -0 -0 -0
-21 -18 -0 -0 -0 -0 -0 -0 -126 -162 -175 -281 -456 -68 -168 -243 -313 -305 -196 -192 -219 -86 -100 -366 -0 -0 -0 -0 -0 -0 -0 -0 -0 -0 -0 -0 -0 -0 -0 -0 -0 -0 -0 -0 -0 -0 -0 -0 -0
-59 -6 -0 -0 -0 -0 -0 -0 -99 -221 -0 -0 -17 -66 -127 -286 -351 -0 -253 -272 -227 -121 -128 -0 -0 -0 -0 -0 -0 -0 -0 -0 -0 -0 -0 -0 -0 -0 -0 -0 -0 -0 -0 -0 -0 -0 -0 -0 -0
-1 -7 -0 -0 -0 -0 -0 -0 -74 -249 -315 -0 -246 -149 -284 -332 -311 -0 -398 -406 -113 -231 -0 -0 -0 -0 -0 -0 -0 -0 -0 -0 -0 -0 -0 -0 -0 -0 -0 -0 -0 -0 -0 -0 -0 -0 -0 -0 -0
-8 -13 -0 -0 -0 -0 -0 -0 -139 -49 -92 -66 -4 -114 -266 -274 -0 -0 -505 -301 -170 -305 -0 -0 -0 -0 -0 -0 -0 -0 -0 -0 -0 -0 -0 -0 -0 -0 -0 -0 -0 -0 -0 -0 -0 -0 -0 -0 -0
-2 -0 -0 -0 -3 -0 -0 -0 -0 -0 -129 -52 -145 -20 -191 -273 -0 -0 -468 -222 -206 -360 -0 -0 -0 -0 -0 -0 -0 -0 -0 -0 -0 -0 -0 -0 -0 -0 -0 -0 -0 -0 -0 -0 -0 -0 -0 -0 -0
-7 -0 -0 -0 -0 -0 -0 -0 -0 -0 -0 -191 -325 -7 -55 -237 -0 -22 -291 -170 -197 -354 -0 -0 -0 -0 -0 -0 -0 -0 -0 -0 -0 -0 -0 -0 -0 -0 -0 -0 -0 -0 -0 -0 -0 -0 -0 -0 -0
-12 -0 -0 -0 -0 -0 -0 -0 -0 -0 -0 -116 -120 -10 -23 -213 -0 -227 -148 -103 -175 -249 -0 -0 -0 -0 -0 -0 -0 -0 -0 -0 -0 -0 -0 -0 -0 -0 -0 -0 -0 -0 -0 -0 -0 -0 -0 -0 -0
-0 -2 -12 -0 -0 -0 -0 -0 -0 -0 -81 -99 -20 -11 -69 -268 -21 -163 -139 -73 -201 -0 -0 -0 -0 -0 -0 -0 -0 -0 -0 -0 -0 -0 -0 -0 -0 -0 -0 -0 -0 -0 -0 -0 -0 -0 -0 -0 -0
-0 -0 -0 -0 -0 -0 -0 -0 -0 -0 -0 -36 -0 -35 -68 -174 -80 -77 -98 -49 -143 -0 -0 -0 -0 -0 -0 -0 -0 -0 -0 -0 -0 -0 -0 -0 -0 -0 -0 -0 -0 -0 -0 -0 -0 -0 -0 -0 -0
-0 -0 -0 -0 -0 -0 -0 -0 -0 -0 -0 -35 -30 -41 -69 -63 -28 -29 -43 -19 -0 -0 -0 -0 -0 -0 -0 -0 -0 -0 -0 -0 -0 -0 -0 -0 -0 -0 -0 -0 -0 -0 -0 -0 -0 -0 -0 -0 -0
-0 -0 -0 -0 -0 -0 -0 -0 -0 -0 -0 -49 -75 -137 -0 -77 -2 -29 -27 -25 -0 -0 -0 -0 -0 -0 -0 -0 -0 -0 -0 -0 -0 -0 -0 -0 -0 -0 -0 -0 -0 -0 -0 -0 -0 -0 -0 -0 -0
-6 -1 -15 -0 -0 -0 -0 -0 -0 -0 -8 -22 -68 -75 -117 -5 -29 -14 -10 -44 -0 -0 -0 -0 -0 -0 -0 -0 -0 -0 -0 -0 -0 -0 -0 -0 -0 -0 -0 -0 -0 -0 -0 -0 -0 -0 -0 -0 -0
-2 -0 -0 -0 -0 -0 -0 -0 -0 -0 -51 -24 -65 -114 -65 -48 -56 -101 -54 -0 -0 -0 -0 -0 -0 -0 -0 -0 -0 -0 -0 -0 -0 -0 -0 -0 -0 -0 -0 -0 -0 -0 -0 -0 -0 -0 -0 -0 -0
-0 -0 -0 -0 -0 -0 -0 -0 -0 -0 -0 -31 -43 -105 -125 -123 -102 -54 -69 -39 -0 -0 -0 -0 -0 -0 -0 -0 -0 -0 -0 -0 -0 -0 -0 -0 -0 -0 -0 -0 -0 -0 -0 -0 -0 -0 -0 -0 -0
-0 -0 -0 -0 -0 -0 -0 -0 -0 -0 -0 -0 -40 -79 -102 -55 -105 -95 -60 -0 -0 -0 -0 -0 -0 -0 -0 -0 -0 -0 -0 -0 -0 -0 -0 -0 -0 -0 -0 -0 -0 -0 -0 -0 -0 -0 -0 -0 -0
-0 -0 -0 -12 -0 -0 -0 -0 -0 -0 -0 -0 -65 -87 -85 -51 -39 -48 -30 -0 -0 -0 -0 -0 -0 -0 -0 -0 -0 -0 -0 -0 -0 -0 -0 -0 -0 -0 -0 -0 -0 -0 -0 -0 -0 -0 -0 -0 -0
-0 -0 -0 -0 -0 -0 -0 -2 -0 -0 -0 -0 -0 -0 -145 -92 -70 -82 -104 -0 -0 -0 -0 -0 -0 -0 -0 -0 -0 -0 -0 -0 -0 -0 -0 -0 -0 -0 -0 -0 -0 -0 -0 -0 -0 -0 -0 -0 -0
-1 -0 -0 -0 -6 -1 -0 -0 -0 -0 -0 -0 -0 -34 -135 -133 -127 -90 -109 -242 -0 -0 -0 -0 -0 -0 -0 -0 -0 -0 -0 -0 -0 -0 -0 -0 -0 -0 -0 -0 -0 -0 -0 -0 -0 -0 -0 -0 -0
-0 -0 -0 -0 -0 -0 -0 -0 -0 -0 -0 -0 -0 -15 -150 -162 -175 -150 -95 -248 -0 -0 -0 -0 -0 -0 -0 -0 -0 -0 -0 -0 -0 -0 -0 -0 -0 -0 -0 -0 -0 -0 -0 -0 -0 -0 -0 -0 -0
-0 -0 -0 -0 -0 -0 -0 -0 -0 -0 -0 -0 -0 -0 -0 -181 -175 -165 -130 -228 -309 -0 -0 -0 -0 -0 -0 -0 -0 -0 -0 -0 -0 -0 -0 -0 -0 -0 -0 -0 -0 -0 -0 -0 -0 -0 -0 -0 -0
-0 -0 -0 -10 -0 -0 -0 -0 -0 -0 -0 -0 -0 -0 -0 -186 -195 -197 -155 -143 -261 -29 -0 -0 -0 -0 -0 -0 -0 -0 -0 -0 -0 -0 -0 -0 -0 -0 -0 -0 -0 -0 -0 -0 -0 -0 -0 -0 -0
-0 -0 -0 -0 -0 -0 -0 -0 -0 -0 -0 -0 -0 -0 -0 -0 -188 -203 -160 -136 -216 -332 -0 -0 -0 -0 -0 -0 -0 -0 -0 -0 -0 -0 -0 -0 -0 -0 -0 -0 -0 -0 -0 -0 -0 -0 -0 -0 -0
-0 -0 -0 -0 -0 -0 -0 -0 -0 -0 -0 -0 -0 -0 -0 -0 -203 -196 -157 -154 -193 -266 -0 -0 -0 -0 -0 -0 -0 -0 -0 -0 -0 -0 -0 -0 -0 -0 -0 -0 -0 -0 -0 -0 -0 -0 -0 -0 -0
-0 -0 -0 -0 -0 -0 -0 -0 -0 -0 -0 -0 -0 -0 -0 -0 -0 -0 -292 -239 -124 -314 -0 -0 -0 -0 -0 -0 -0 -0 -0 -0 -0 -0 -0 -0 -0 -0 -0 -0 -0 -0 -0 -0 -0 -0 -0 -0 -0
Wind_Speed
8 7 2 2 4 2 5 9 5 6 4 4 5 6 12 4 4 5 9 18 18 14 14 14 17 15 16 15 15 16 15 14 14 13 13 12 12 12 12 12 11 11 11 11 12 11 11 11 11
5 7 2 1 4 5 6 8 12 8 3 8 8 7 7 3 4 14 10 19 18 14 12 13 18 17 18 18 17 16 15 14 13 13 12 12 12 12 12 12 11 11 11 11 11 11 11 11 11
5 7 2 4 5 14 6 7 14 1 4 4 7 7 5 5 10 8 17 20 18 14 12 13 18 17 19 18 17 16 15 14 13 13 12 12 12 12 12 11 11 11 11 11 11 11 11 11 11
2 4 3 3 10 7 5 8 6 4 3 4 5 11 5 2 5 13 21 20 18 15 13 17 18 19 18 18 17 16 15 14 13 12 12 12 11 12 12 11 12 12 12 12 12 12 12 12 12
3 1 3 4 8 7 8 17 6 2 3 3 15 6 4 5 10 22 21 19 18 15 13 13 20 19 19 18 17 16 15 14 13 12 12 11 12 12 13 12 12 12 12 13 12 12 11 11 11
3 1 2 11 4 7 8 10 4 2 2 5 8 6 3 4 7 18 20 19 17 16 14 14 18 18 18 18 17 16 15 14 13 12 12 12 12 12 13 12 12 13 12 11 11 11 10 10 11
4 2 5 5 7 11 14 4 9 7 5 4 9 7 1 5 7 16 18 17 17 15 14 12 12 14 17 17 16 16 15 14 12 12 12 12 12 12 12 11 11 11 11 10 10 10 9 8 9
2 3 4 4 5 8 12 4 6 11 9 4 12 11 8 13 11 18 19 17 16 14 13 11 11 10 9 9 16 15 13 13 12 11 10 8 10 11 10 8 9 8 8 8 8 9 9 9 8
2 2 3 3 5 8 6 5 4 4 9 6 9 19 11 20 11 19 20 16 15 13 13 12 12 10 10 8 9 12 13 11 10 8 8 6 4 5 6 5 5 4 3 5 7 8 10 9 9
2 2 5 6 5 6 7 5 6 3 1 7 11 5 24 19 16 20 20 17 16 16 14 12 12 11 9 8 7 6 5 4 3 4 6 4 4 4 4 2 1 3 5 5 8 9 9 8 4
4 3 7 14 8 5 9 10 5 3 4 6 4 3 20 13 16 16 15 17 18 16 13 13 13 12 10 7 5 3 3 3 3 6 4 4 3 2 2 2 2 3 6 4 6 5 4 6 4
4 7 9 12 11 6 6 10 12 4 5 8 15 13 13 10 12 13 16 17 18 16 14 14 12 11 8 6 5 5 4 3 3 4 5 4 3 3 3 3 3 4 3 4 4 3 4 6 5
3 4 6 8 9 7 6 8 5 9 6 8 16 19 15 11 7 5 8 12 14 13 14 13 12 10 9 7 5 5 5 4 4 4 5 4 4 4 3 3 3 3 3 3 4 4 4 5 5
5 7 11 7 9 6 7 11 3 5 6 5 17 21 13 11 6 6 8 9 13 12 12 11 11 10 9 6 7 5 5 5 5 4 4 6 4 4 4 4 3 3 3 3 3 4 4 4 3
4 6 8 9 7 7 7 11 7 8 4 6 16 16 15 10 11 7 6 7 6 10 10 7 9 10 9 9 7 6 5 5 5 4 5 5 4 4 4 3 3 2 3 5 4 5 4 5 3
4 2 3 7 6 8 8 16 4 9 4 7 10 13 14 14 10 10 10 8 8 8 12 6 8 9 8 8 6 5 5 5 5 4 4 5 5 4 4 3 2 2 3 3 3 3 3 4 4
5 4 5 9 7 8 7 8 10 4 6 7 8 14 10 16 17 13 15 15 13 13 12 8 7 9 8 7 5 6 7 5 4 4 4 5 5 5 4 3 1 3 3 3 2 3 2 3 3
2 5 6 6 8 4 5 13 9 12 4 4 4 10 18 19 19 15 10 7 12 12 12 8 6 8 8 5 5 4 4 4 4 4 4 6 4 4 4 3 2 3 3 3 3 3 3 1 1
4 6 8 10 8 2 7 11 14 10 5 5 6 8 13 18 16 16 19 13 12 11 13 10 9 8 9 7 6 4 4 4 3 4 7 6 5 4 4 2 2 3 3 2 2 2 3 4 3
3 5 9 12 7 4 7 12 12 8 7 8 10 8 13 10 13 19 18 16 15 14 15 13 11 9 9 7 4 3 4 2 4 4 5 6 6 5 4 4 3 3 3 3 3 3 1 2 3
5 5 6 9 9 7 6 12 12 12 8 7 7 6 10 17 16 17 20 20 15 16 16 15 15 14 10 8 5 3 3 4 3 2 3 4 6 6 4 4 4 4 3 3 2 3 3 2 2
5 3 3 6 5 3 4 9 7 5 9 8 11 9 10 15 17 15 17 16 16 14 12 14 15 15 11 11 8 7 8 6 4 4 4 5 6 6 5 4 4 4 3 4 3 3 2 3 1
6 2 0 3 4 4 5 4 7 4 5 12 15 16 17 17 19 21 19 19 19 17 17 15 14 13 11 12 11 9 7 4 3 3 7 6 5 6 6 5 5 4 3 3 4 3 3 2 2
3 4 3 1 2 5 10 7 7 6 7 5 7 13 16 14 16 15 20 14 15 14 13 13 14 12 12 12 12 12 11 7 5 5 6 5 4 4 6 6 5 4 4 4 3 3 3 3 3
2 5 4 3 1 7 2 3 15 11 15 7 7 14 17 18 17 18 17 17 16 18 16 12 14 14 13 15 12 13 12 9 11 10 7 6 4 3 6 6 5 3 4 4 4 4 3 3 3
6 7 5 5 3 5 1 8 9 12 13 9 9 8 17 18 18 17 18 19 20 21 20 19 18 17 16 16 15 10 10 7 7 8 5 6 5 6 7 6 6 6 6 4 4 3 3 4 4
4 5 5 1 3 1 5 8 10 13 11 8 7 4 9 12 14 18 17 19 18 18 19 21 22 17 17 18 13 12 10 9 10 9 7 6 5 5 7 7 6 6 5 5 5 4 4 4 4
4 2 3 1 3 5 6 6 8 9 8 8 8 10 7 8 14 14 15 18 17 17 17 16 15 18 16 15 13 13 13 10 9 8 8 8 7 7 7 7 6 6 6 6 6 4 4 5 3
3 3 5 5 4 4 3 8 7 6 3 6 8 10 9 7 7 9 13 14 16 13 14 16 16 17 15 14 13 12 11 9 7 8 8 8 7 8 7 7 7 6 7 6 5 5 6 5 4
7 9 7 6 6 5 4 10 10 14 3 4 5 6 5 2 6 7 7 8 11 14 15 17 15 14 14 13 13 13 12 10 10 9 8 7 7 7 8 7 7 6 6 6 7 6 5 6 6
Wind_Direction
317 299 326 306 98 134 220 249 257 282 359 189 222 153 124 65 116 182 111 119 130 132 134 137 139 141 127 121 113 109 103 95 96 94 90 87 82 79 74 69 63 59 57 54 52 46 43 40 31
308 311 152 231 149 202 234 236 247 236 213 153 95 115 47 86 87 119 111 130 128 132 134 139 142 130 130 121 112 109 105 103 102 98 92 87 83 79 74 69 62 58 54 52 50 44 40 35 27
301 280 107 177 195 217 195 225 240 212 108 167 117 54 91 130 110 136 129 129 128 130 133 145 133 129 122 118 116 113 110 107 103 98 91 87 82 77 71 67 60 55 53 48 48 41 34 32 26
323 328 316 214 239 243 208 257 254 170 27 7 94 80 58 239 117 132 138 135 127 128 128 131 132 124 122 120 117 115 111 109 104 98 92 87 80 74 70 63 60 55 50 45 41 40 35 32 28
254 261 235 239 258 274 218 246 268 209 230 48 352 124 68 337 120 139 135 127 129 131 132 132 126 126 124 121 117 113 110 108 105 99 94 87 82 77 72 65 60 55 51 48 45 43 39 33 28
272 110 258 236 266 274 284 248 181 234 316 101 50 344 133 239 124 141 131 127 132 132 133 128 125 125 124 122 119 115 113 110 107 101 95 90 86 80 73 65 63 59 54 51 44 39 36 31 24
197 42 261 313 246 264 257 218 160 184 235 171 120 337 139 247 186 140 129 128 132 131 125 123 124 123 121 121 120 119 118 115 111 109 104 100 92 86 76 71 68 63 55 49 45 42 34 15 356
188 155 288 284 302 267 258 287 171 152 221 73 110 223 204 209 173 131 133 132 133 129 125 124 120 116 111 116 119 119 120 122 122 121 114 108 99 90 89 82 71 70 56 42 28 22 16 11 338
265 239 252 268 310 268 321 337 262 171 131 148 166 234 191 176 158 128 136 137 134 134 135 138 132 126 122 117 128 129 136 140 141 134 132 140 128 119 104 117 93 67 33 356 6 352 359 19 18
201 222 246 247 318 302 307 311 296 142 159 120 231 210 149 153 163 147 148 145 147 147 148 147 139 136 139 133 134 135 133 141 162 133 145 153 123 137 134 145 72 351 352 341 20 35 25 28 34
252 241 274 284 292 321 324 328 293 19 39 162 162 279 155 162 159 155 150 148 149 151 153 149 146 145 140 140 145 145 146 142 130 107 116 128 97 96 97 79 46 36 51 28 29 21 28 36 40
351 253 249 271 270 297 309 304 324 89 203 192 126 233 176 174 160 159 150 145 149 158 148 149 148 146 141 144 147 150 137 118 112 81 91 95 86 86 78 75 60 53 35 38 27 22 23 44 53
194 282 292 302 277 276 296 289 282 293 207 126 166 185 183 162 130 116 147 138 151 156 150 149 148 145 149 144 141 142 132 131 127 99 86 102 95 83 82 74 68 49 38 38 30 30 32 49 47
309 305 294 298 296 289 281 279 32 298 127 177 190 183 161 137 147 130 163 149 160 153 148 150 150 150 142 141 146 135 130 131 117 112 112 106 109 100 90 78 64 48 42 40 49 50 43 44 55
295 307 312 291 276 268 336 286 225 245 244 180 233 162 144 114 150 143 181 162 157 152 133 155 149 146 135 136 133 137 141 124 127 133 121 117 108 96 97 95 64 43 41 48 36 37 43 45 48
263 204 294 271 258 263 146 274 225 292 318 185 181 154 142 131 145 167 175 205 145 147 145 148 156 143 134 132 136 133 133 130 136 138 132 128 120 104 93 98 72 40 50 58 64 48 49 44 49
320 264 252 296 254 209 160 279 291 326 246 229 184 160 164 144 183 182 191 192 164 165 152 153 150 148 141 139 135 135 138 136 148 137 144 145 132 111 116 114 116 67 55 54 41 43 88 51 11
316 315 309 287 312 18 288 253 275 288 294 243 238 168 169 168 177 158 250 182 174 162 159 149 151 147 143 134 125 119 130 140 146 151 161 151 144 132 116 117 140 88 86 50 46 53 32 100 10
284 281 289 294 279 302 261 256 258 265 218 228 253 157 174 183 178 174 179 224 161 157 155 156 152 163 152 153 151 151 166 149 145 164 162 151 158 151 145 143 127 114 114 116 79 62 58 16 18
296 300 290 293 293 253 273 276 280 262 221 198 201 195 177 182 178 199 185 178 167 163 166 167 168 167 167 163 156 144 148 157 144 157 163 160 159 162 158 154 145 131 109 98 87 70 65 39 19
233 230 267 256 306 322 303 286 267 258 240 203 200 207 172 175 185 192 189 176 164 171 181 174 177 179 169 156 144 115 102 76 101 173 166 182 163 166 151 153 145 144 131 147 140 122 107 93 348
258 178 347 353 26 246 56 287 269 268 250 201 189 187 193 177 193 202 184 158 184 192 182 178 181 177 172 166 164 174 171 161 187 172 170 178 170 170 161 158 155 153 152 148 161 146 137 117 90
254 80 73 290 305 312 307 297 266 296 245 227 195 191 191 189 190 201 204 177 193 169 189 181 184 178 168 176 179 166 163 173 147 154 165 176 177 169 167 164 167 165 157 155 147 135 133 131 127
339 7 323 356 174 251 234 183 264 226 245 211 179 200 191 193 195 200 207 193 184 174 184 172 175 184 174 183 179 178 176 172 153 162 172 177 175 169 172 166 167 174 160 160 158 161 157 131 125
100 58 348 340 333 232 277 193 260 296 279 225 237 197 200 194 193 197 183 183 180 185 182 172 173 184 190 181 197 184 180 174 171 170 175 166 165 178 188 170 170 175 171 158 147 144 139 151 139
179 159 168 216 209 268 153 240 252 241 266 264 246 215 203 196 194 193 187 185 185 190 182 175 180 191 193 188 191 189 178 180 180 170 171 180 176 175 172 175 169 169 164 156 150 145 164 154 162
216 187 199 329 258 106 239 284 305 262 278 279 285 235 197 203 200 191 185 189 190 186 189 189 177 189 190 194 184 185 185 175 184 173 165 170 169 165 167 165 166 162 158 160 154 163 175 163 169
163 183 132 106 253 249 272 254 239 302 330 314 302 277 227 220 202 200 190 192 190 187 182 179 185 189 188 190 183 187 186 178 177 158 166 161 159 152 158 161 163 163 160 161 159 167 172 155 164
157 236 207 169 190 212 283 263 212 212 242 282 288 284 257 226 209 195 190 183 190 185 177 183 181 185 185 184 180 179 176 168 163 167 160 164 151 154 163 164 163 166 160 164 159 164 163 149 147
174 195 174 149 242 241 189 267 267 290 223 252 274 322 321 135 162 187 181 178 174 181 183 186 184 183 177 174 176 181 169 162 164 166 160 160 162 163 165 164 158 166 165 159 158 158 143 145 138